Flag for Canada Weather past 2 weeks in Niagara Falls, Ontario, Canada

Now
53 °F

Overcast.


Feels Like: 49 °F
Forecast: 49 / 57 °F
Wind: 12 mph from Northwest

Location: Niagara Falls International Airport

Current Time: Sep 22, 2014 at 2:44:16 PM

Latest Report: Sep 22, 2014 at 1:53 PM


Visibility: 10 mi

Pressure: 30.11 "Hg

Humidity: 59%

Dew point: 39 °F

Location of Niagara FallsLocation

Historic Weather in Niagara Falls — Graph

°F

Niagara Falls temperature yesterday

Maximum temperature yesterday: 76 °F (at 1:53 PM)
Minimum temperature yesterday: 53 °F (at 11:53 PM)
Average temperature yesterday: 68 °F

Past Weeks' High & Low Weather Summary

 TemperatureHumidityPressure
High78 °F (Sep 10, 1:53 PM)97% (Sep 19, 3:04 AM)30.37 "Hg (Sep 19, 3:04 AM)
Low38 °F (Sep 19, 3:04 AM)37% (Sep 7, 4:53 PM)29.54 "Hg (Sep 21, 2:53 PM)
Average59 °F74%30.07 "Hg
* Reported Sep 7 12:53 PM — Sep 22 12:53 PM, Niagara Falls, Weather by CustomWeather, © 2014

Note: Actual official high and low records may vary slightly from our data, if they occured in-between our weather recording intervals... More about our weather records

Advertising

Niagara Falls weather history for previous 24 hours

 ConditionsComfort  
Time TempWeatherWind HumidityBarometerVisibility
12:53 PM
Sep 22
52 °FMore clouds than sun.10 mph66%30.10 "Hg10 mi
11:53 AM51 °FMore clouds than sun.15 mph66%30.09 "Hg10 mi
10:53 AM50 °FMostly cloudy.13 mph68%30.08 "Hg10 mi
9:53 AM51 °FOvercast.16 mph66%30.05 "Hg10 mi
9:03 AM50 °FOvercast.16 mph66%30.02 "Hg10 mi
7:53 AM51 °FMostly cloudy.13 mph66%29.99 "Hg10 mi
7:01 AM50 °FPartly cloudy.18 mph71%29.96 "Hg10 mi
5:53 AM50 °FMostly cloudy.18 mph77%29.93 "Hg10 mi
4:53 AM50 °FMostly cloudy.13 mph77%29.89 "Hg10 mi
3:53 AM50 °FOvercast.14 mph83%29.86 "Hg10 mi
2:53 AM50 °FOvercast.15 mph83%29.83 "Hg10 mi
1:53 AM51 °FLight rain. Overcast.20 mph86%29.81 "Hg10 mi
1:02 AM51 °FLight rain. Fog.14 mph92%29.78 "Hg3 mi
12:53 AM51 °FLight rain. Fog.20 mph92%29.78 "Hg2 mi
11:53 PM
Sep 21
53 °FLight rain. Fog.20 mph93%29.74 "Hg1 mi
10:53 PM56 °FMostly cloudy.21 mph84%29.70 "Hg10 mi
9:53 PM60 °FPassing clouds.17 mph75%29.67 "Hg10 mi
8:53 PM62 °FPartly cloudy.13 mph67%29.64 "Hg10 mi
7:53 PM63 °FPartly sunny.10 mph70%29.62 "Hg10 mi
6:53 PM65 °FPartly sunny.12 mph66%29.61 "Hg10 mi
5:53 PM68 °FPassing clouds.22 mph59%29.59 "Hg10 mi
4:53 PM71 °FPassing clouds.23 mph57%29.57 "Hg10 mi
3:53 PM74 °FScattered clouds.21 mph57%29.55 "Hg10 mi
2:53 PM75 °FScattered clouds.17 mph60%29.54 "Hg10 mi
Weather by CustomWeather, © 2014

See weather overviewHow to use our weather pages